| time (UTC) | temp C | wind direction | speed KPH | gust KPH | rain 1hr cm | rain 24hr cm | rain mn cm | humidity % | barometer mb |
| 20260507161519 | 26 | 293 | 0.0 | 6.4 | 0.00 | 0.00 | 0.00 | 23 | 1014.0 |
| 20260507161006 | 25 | 269 | 0.0 | 6.4 | 0.00 | 0.00 | 0.00 | 24 | 1014.0 |
| 20260507160506 | 25 | 283 | 0.0 | 6.4 | 0.00 | 0.00 | 0.00 | 24 | 1014.1 |
| 20260507160024 | 25 | 252 | 0.0 | 8.0 | 0.00 | 0.00 | 0.00 | 23 | 1014.2 |
| 20260507155506 | 25 | 243 | 0.0 | 8.0 | 0.00 | 0.00 | 0.00 | 24 | 1014.1 |
| 20260507155007 | 24 | 288 | 0.0 | 1.6 | 0.00 | 0.00 | 0.00 | 24 | 1014.2 |
| 20260507154526 | 24 | 262 | 0.0 | 8.0 | 0.00 | 0.00 | 0.00 | 24 | 1014.2 |
| 20260507154004 | 23 | 167 | 1.6 | 8.0 | 0.00 | 0.00 | 0.00 | 25 | 1014.2 |
| 20260507153504 | 23 | 167 | 1.6 | 4.8 | 0.00 | 0.00 | 0.00 | 25 | 1014.2 |
| 20260507153018 | 23 | 248 | 0.0 | 4.8 | 0.00 | 0.00 | 0.00 | 25 | 1014.2 |
| 20260507152506 | 23 | 195 | 1.6 | 6.4 | 0.00 | 0.00 | 0.00 | 26 | 1014.2 |
| 20260507152005 | 23 | 135 | 0.0 | 6.4 | 0.00 | 0.00 | 0.00 | 26 | 1014.2 |
| 20260507151519 | 22 | 146 | 0.0 | 6.4 | 0.00 | 0.00 | 0.00 | 26 | 1014.3 |
| 20260507151010 | 22 | 176 | 0.0 | 6.4 | 0.00 | 0.00 | 0.00 | 27 | 1014.3 |
| 20260507150506 | 22 | 179 | 0.0 | 8.0 | 0.00 | 0.00 | 0.00 | 27 | 1014.3 |
| 20260507150031 | 22 | 205 | 0.0 | 8.0 | 0.00 | 0.00 | 0.00 | 28 | 1014.3 |
| 20260507145507 | 21 | 178 | 0.0 | 6.4 | 0.00 | 0.00 | 0.00 | 29 | 1014.3 |
| 20260507145005 | 21 | 174 | 1.6 | 6.4 | 0.00 | 0.00 | 0.00 | 29 | 1014.3 |
| 20260507144527 | 20 | 152 | 0.0 | 6.4 | 0.00 | 0.00 | 0.00 | 29 | 1014.3 |
| 20260507144003 | 20 | 205 | 0.0 | 6.4 | 0.00 | 0.00 | 0.00 | 30 | 1014.2 |
| 20260507143506 | 20 | 165 | 1.6 | 8.0 | 0.00 | 0.00 | 0.00 | 30 | 1014.3 |
| 20260507143016 | 20 | 231 | 1.6 | 8.0 | 0.00 | 0.00 | 0.00 | 30 | 1014.2 |
| 20260507142509 | 19 | 199 | 1.6 | 6.4 | 0.00 | 0.00 | 0.00 | 31 | 1014.3 |
| 20260507142007 | 19 | 245 | 0.0 | 4.8 | 0.00 | 0.00 | 0.00 | 32 | 1014.2 |
| 20260507141521 | 19 | 120 | 0.0 | 4.8 | 0.00 | 0.00 | 0.00 | 32 | 1014.3 |
| 20260507141007 | 18 | 205 | 0.0 | 1.6 | 0.00 | 0.00 | 0.00 | 33 | 1014.4 |
| 20260507140511 | 18 | 160 | 0.0 | 4.8 | 0.00 | 0.00 | 0.00 | 35 | 1014.3 |
| 20260507140025 | 18 | 143 | 1.6 | 4.8 | 0.00 | 0.00 | 0.00 | 35 | 1014.3 |
| 20260507135510 | 17 | 141 | 0.0 | 6.4 | 0.00 | 0.00 | 0.00 | 37 | 1014.2 |
| 20260507135017 | 17 | 153 | 1.6 | 6.4 | 0.00 | 0.00 | 0.00 | 37 | 1014.2 |
| 20260507134528 | 17 | 146 | 0.0 | 0.0 | 0.00 | 0.00 | 0.00 | 39 | 1014.1 |
| 20260507134010 | 17 | 146 | 0.0 | 0.0 | 0.00 | 0.00 | 0.00 | 38 | 1014.0 |
| 20260507133505 | 16 | 146 | 0.0 | 0.0 | 0.00 | 0.00 | 0.00 | 38 | 1013.8 |
| 20260507133019 | 16 | 146 | 0.0 | 0.0 | 0.00 | 0.00 | 0.00 | 39 | 1013.8 |
| 20260507132509 | 16 | 146 | 0.0 | 0.0 | 0.00 | 0.00 | 0.00 | 40 | 1013.8 |
| 20260507132010 | 16 | 146 | 0.0 | 1.6 | 0.00 | 0.00 | 0.00 | 41 | 1013.8 |
| 20260507131528 | 16 | 146 | 0.0 | 1.6 | 0.00 | 0.00 | 0.00 | 41 | 1013.7 |
| 20260507131009 | 16 | 145 | 0.0 | 1.6 | 0.00 | 0.00 | 0.00 | 43 | 1013.5 |
| 20260507130511 | 16 | 146 | 0.0 | 1.6 | 0.00 | 0.00 | 0.00 | 43 | 1013.6 |
| 20260507130027 | 15 | 210 | 0.0 | 0.0 | 0.00 | 0.00 | 0.00 | 42 | 1013.6 |
| 20260507125511 | 15 | 210 | 0.0 | 0.0 | 0.00 | 0.00 | 0.00 | 42 | 1013.5 |
| 20260507125011 | 15 | 211 | 0.0 | 0.0 | 0.00 | 0.00 | 0.00 | 41 | 1013.5 |
| 20260507124527 | 15 | 211 | 0.0 | 0.0 | 0.00 | 0.00 | 0.00 | 40 | 1013.5 |
| 20260507124007 | 15 | 211 | 0.0 | 0.0 | 0.00 | 0.00 | 0.00 | 40 | 1013.6 |
| 20260507123509 | 15 | 212 | 0.0 | 0.0 | 0.00 | 0.00 | 0.00 | 40 | 1013.6 |
| 20260507123020 | 16 | 211 | 0.0 | 4.8 | 0.00 | 0.00 | 0.00 | 40 | 1013.5 |
| 20260507122508 | 16 | 210 | 0.0 | 4.8 | 0.00 | 0.00 | 0.00 | 40 | 1013.5 |
| 20260507122010 | 16 | 168 | 0.0 | 1.6 | 0.00 | 0.00 | 0.00 | 42 | 1013.6 |
| 20260507121525 | 16 | 225 | 0.0 | 0.0 | 0.00 | 0.00 | 0.00 | 41 | 1013.4 |
| 20260507121010 | 16 | 225 | 0.0 | 0.0 | 0.00 | 0.00 | 0.00 | 38 | 1013.3 |
| 20260507120510 | 17 | 225 | 0.0 | 0.0 | 0.00 | 0.00 | 0.00 | 38 | 1013.3 |
| 20260507120036 | 17 | 225 | 0.0 | 0.0 | 0.00 | 0.00 | 0.00 | 38 | 1013.3 |
| 20260507115507 | 17 | 225 | 0.0 | 0.0 | 0.00 | 0.00 | 0.00 | 36 | 1013.3 |
| 20260507115010 | 18 | 226 | 0.0 | 0.0 | 0.00 | 0.00 | 0.00 | 35 | 1013.4 |
| 20260507114526 | 18 | 224 | 0.0 | 1.6 | 0.00 | 0.00 | 0.00 | 34 | 1013.4 |
| 20260507114007 | 18 | 347 | 0.0 | 1.6 | 0.00 | 0.00 | 0.00 | 34 | 1013.3 |
| 20260507113507 | 18 | 347 | 0.0 | 0.0 | 0.00 | 0.00 | 0.00 | 33 | 1013.3 |
| 20260507113023 | 18 | 347 | 0.0 | 0.0 | 0.00 | 0.00 | 0.00 | 33 | 1013.4 |
| 20260507112510 | 18 | 347 | 0.0 | 1.6 | 0.00 | 0.00 | 0.00 | 32 | 1013.3 |
| 20260507112014 | 18 | 347 | 0.0 | 3.2 | 0.00 | 0.00 | 0.00 | 31 | 1013.3 |
| 20260507111525 | 18 | 347 | 0.0 | 3.2 | 0.00 | 0.00 | 0.00 | 30 | 1013.2 |
| 20260507111005 | 18 | 347 | 0.0 | 3.2 | 0.00 | 0.00 | 0.00 | 31 | 1013.2 |
| 20260507110504 | 18 | 347 | 0.0 | 1.6 | 0.00 | 0.00 | 0.00 | 31 | 1013.2 |
| 20260507110006 | 18 | 347 | 0.0 | 0.0 | 0.00 | 0.00 | 0.00 | 31 | 1013.3 |
| 20260507105503 | 18 | 347 | 0.0 | 0.0 | 0.00 | 0.00 | 0.00 | 30 | 1013.3 |
| 20260507105007 | 19 | 347 | 0.0 | 0.0 | 0.00 | 0.00 | 0.00 | 30 | 1013.4 |
| 20260507104510 | 19 | 347 | 0.0 | 1.6 | 0.00 | 0.00 | 0.00 | 30 | 1013.4 |
| 20260507104009 | 19 | 347 | 0.0 | 3.2 | 0.00 | 0.00 | 0.00 | 30 | 1013.4 |
| 20260507103510 | 19 | 347 | 0.0 | 4.8 | 0.00 | 0.00 | 0.00 | 30 | 1013.4 |
| 20260507103003 | 18 | 347 | 0.0 | 4.8 | 0.00 | 0.00 | 0.00 | 31 | 1013.4 |
| 20260507102510 | 18 | 349 | 0.0 | 1.6 | 0.00 | 0.00 | 0.00 | 32 | 1013.4 |
| 20260507102003 | 17 | 297 | 0.0 | 0.0 | 0.00 | 0.00 | 0.00 | 33 | 1013.4 |
| 20260507101507 | 17 | 297 | 0.0 | 0.0 | 0.00 | 0.00 | 0.00 | 34 | 1013.5 |
| 20260507101003 | 17 | 297 | 0.0 | 0.0 | 0.00 | 0.00 | 0.00 | 34 | 1013.6 |
| 20260507100504 | 17 | 297 | 0.0 | 0.0 | 0.00 | 0.00 | 0.00 | 34 | 1013.7 |
| 20260507100007 | 17 | 297 | 0.0 | 0.0 | 0.00 | 0.00 | 0.00 | 35 | 1013.7 |
| 20260507095510 | 17 | 297 | 0.0 | 0.0 | 0.00 | 0.00 | 0.00 | 35 | 1013.8 |
| 20260507095004 | 17 | 296 | 0.0 | 0.0 | 0.00 | 0.00 | 0.00 | 35 | 1013.9 |
| 20260507094505 | 17 | 297 | 0.0 | 0.0 | 0.00 | 0.00 | 0.00 | 34 | 1013.9 |
| 20260507094009 | 17 | 297 | 0.0 | 0.0 | 0.00 | 0.00 | 0.00 | 34 | 1014.0 |
| 20260507093504 | 17 | 296 | 0.0 | 0.0 | 0.00 | 0.00 | 0.00 | 34 | 1014.0 |
| 20260507093004 | 18 | 297 | 0.0 | 0.0 | 0.00 | 0.00 | 0.00 | 33 | 1014.1 |
| 20260507092508 | 18 | 297 | 0.0 | 0.0 | 0.00 | 0.00 | 0.00 | 33 | 1014.1 |
| 20260507092003 | 17 | 296 | 0.0 | 0.0 | 0.00 | 0.00 | 0.00 | 34 | 1014.2 |
| 20260507091507 | 17 | 296 | 0.0 | 0.0 | 0.00 | 0.00 | 0.00 | 34 | 1014.2 |
| 20260507091004 | 17 | 297 | 0.0 | 0.0 | 0.00 | 0.00 | 0.00 | 34 | 1014.1 |
| 20260507090504 | 17 | 297 | 0.0 | 0.0 | 0.00 | 0.00 | 0.00 | 35 | 1014.2 |
| 20260507090020 | 18 | 297 | 0.0 | 0.0 | 0.00 | 0.00 | 0.00 | 34 | 1014.2 |
| 20260507085504 | 18 | 297 | 0.0 | 0.0 | 0.00 | 0.00 | 0.00 | 33 | 1014.2 |
| 20260507085006 | 18 | 297 | 0.0 | 0.0 | 0.00 | 0.00 | 0.00 | 33 | 1014.3 |
| 20260507084520 | 18 | 297 | 0.0 | 0.0 | 0.00 | 0.00 | 0.00 | 34 | 1014.3 |
| 20260507084006 | 18 | 297 | 0.0 | 0.0 | 0.00 | 0.00 | 0.00 | 34 | 1014.3 |
| 20260507083504 | 17 | 297 | 0.0 | 0.0 | 0.00 | 0.00 | 0.00 | 35 | 1014.4 |
| 20260507083026 | 17 | 297 | 0.0 | 0.0 | 0.00 | 0.00 | 0.00 | 36 | 1014.4 |
| 20260507082509 | 17 | 297 | 0.0 | 0.0 | 0.00 | 0.00 | 0.00 | 36 | 1014.5 |
| 20260507082006 | 17 | 297 | 0.0 | 0.0 | 0.00 | 0.00 | 0.00 | 37 | 1014.5 |
| 20260507081513 | 17 | 297 | 0.0 | 0.0 | 0.00 | 0.00 | 0.00 | 39 | 1014.6 |
| 20260507081006 | 17 | 295 | 0.0 | 0.0 | 0.00 | 0.00 | 0.00 | 41 | 1014.5 |
| 20260507080506 | 17 | 295 | 0.0 | 0.0 | 0.00 | 0.00 | 0.00 | 42 | 1014.6 |
| 20260507080015 | 17 | 296 | 0.0 | 0.0 | 0.00 | 0.00 | 0.00 | 42 | 1014.6 |
| 20260507075509 | 17 | 295 | 0.0 | 0.0 | 0.00 | 0.00 | 0.00 | 42 | 1014.6 |
| 20260507075007 | 17 | 296 | 0.0 | 0.0 | 0.00 | 0.00 | 0.00 | 42 | 1014.6 |
| 20260507074534 | 17 | 295 | 0.0 | 0.0 | 0.00 | 0.00 | 0.00 | 42 | 1014.6 |
| 20260507074008 | 17 | 296 | 0.0 | 0.0 | 0.00 | 0.00 | 0.00 | 43 | 1014.6 |
| 20260507073506 | 17 | 296 | 0.0 | 0.0 | 0.00 | 0.00 | 0.00 | 43 | 1014.5 |
| 20260507073027 | 17 | 295 | 0.0 | 0.0 | 0.00 | 0.00 | 0.00 | 43 | 1014.4 |
| 20260507072509 | 17 | 296 | 0.0 | 0.0 | 0.00 | 0.00 | 0.00 | 43 | 1014.5 |
| 20260507072004 | 18 | 295 | 0.0 | 0.0 | 0.00 | 0.00 | 0.00 | 41 | 1014.4 |
| 20260507071511 | 18 | 295 | 0.0 | 0.0 | 0.00 | 0.00 | 0.00 | 40 | 1014.4 |
| 20260507071006 | 18 | 296 | 0.0 | 0.0 | 0.00 | 0.00 | 0.00 | 40 | 1014.4 |
| 20260507070507 | 18 | 296 | 0.0 | 0.0 | 0.00 | 0.00 | 0.00 | 39 | 1014.4 |
| 20260507070020 | 18 | 297 | 0.0 | 0.0 | 0.00 | 0.00 | 0.00 | 39 | 1014.4 |
| 20260507065508 | 18 | 297 | 0.0 | 0.0 | 0.00 | 0.00 | 0.00 | 39 | 1014.5 |
| 20260507065006 | 18 | 295 | 0.0 | 0.0 | 0.00 | 0.00 | 0.00 | 39 | 1014.5 |
| 20260507064525 | 18 | 297 | 0.0 | 0.0 | 0.00 | 0.00 | 0.00 | 38 | 1014.5 |
| 20260507064006 | 18 | 295 | 0.0 | 0.0 | 0.00 | 0.00 | 0.00 | 38 | 1014.5 |
| 20260507063504 | 18 | 297 | 0.0 | 0.0 | 0.00 | 0.00 | 0.00 | 38 | 1014.5 |
| 20260507063027 | 18 | 296 | 0.0 | 0.0 | 0.00 | 0.00 | 0.00 | 38 | 1014.5 |
| 20260507062509 | 18 | 295 | 0.0 | 0.0 | 0.00 | 0.00 | 0.00 | 36 | 1014.5 |
| 20260507062006 | 18 | 296 | 0.0 | 0.0 | 0.00 | 0.00 | 0.00 | 36 | 1014.5 |
| 20260507061509 | 18 | 296 | 0.0 | 0.0 | 0.00 | 0.00 | 0.00 | 34 | 1014.5 |
| 20260507061004 | 18 | 297 | 0.0 | 0.0 | 0.00 | 0.00 | 0.00 | 34 | 1014.6 |
| 20260507060504 | 18 | 297 | 0.0 | 0.0 | 0.00 | 0.00 | 0.00 | 35 | 1014.6 |
| 20260507060015 | 18 | 295 | 0.0 | 0.0 | 0.00 | 0.00 | 0.00 | 33 | 1014.6 |
| 20260507055509 | 18 | 296 | 0.0 | 0.0 | 0.00 | 0.00 | 0.00 | 33 | 1014.6 |
| 20260507055007 | 18 | 296 | 0.0 | 0.0 | 0.00 | 0.00 | 0.00 | 35 | 1014.6 |
| 20260507054522 | 19 | 295 | 0.0 | 0.0 | 0.00 | 0.00 | 0.00 | 36 | 1014.6 |
| 20260507054008 | 19 | 297 | 0.0 | 0.0 | 0.00 | 0.00 | 0.00 | 32 | 1014.6 |
| 20260507053507 | 20 | 297 | 0.0 | 0.0 | 0.00 | 0.00 | 0.00 | 32 | 1014.5 |
| 20260507053027 | 20 | 297 | 0.0 | 0.0 | 0.00 | 0.00 | 0.00 | 30 | 1014.5 |
| 20260507052507 | 20 | 296 | 0.0 | 0.0 | 0.00 | 0.00 | 0.00 | 30 | 1014.5 |
| 20260507052011 | 20 | 295 | 0.0 | 0.0 | 0.00 | 0.00 | 0.00 | 29 | 1014.6 |
| 20260507051512 | 20 | 296 | 0.0 | 0.0 | 0.00 | 0.00 | 0.00 | 29 | 1014.6 |
| 20260507051013 | 20 | 297 | 0.0 | 0.0 | 0.00 | 0.00 | 0.00 | 31 | 1014.6 |
| 20260507050510 | 20 | 297 | 0.0 | 0.0 | 0.00 | 0.00 | 0.00 | 32 | 1014.5 |
| 20260507050025 | 21 | 295 | 0.0 | 0.0 | 0.00 | 0.00 | 0.00 | 32 | 1014.5 |
| 20260507045507 | 21 | 295 | 0.0 | 0.0 | 0.00 | 0.00 | 0.00 | 30 | 1014.3 |
| 20260507045009 | 21 | 297 | 0.0 | 0.0 | 0.00 | 0.00 | 0.00 | 29 | 1014.3 |
| 20260507044525 | 21 | 296 | 0.0 | 0.0 | 0.00 | 0.00 | 0.00 | 30 | 1014.3 |
| 20260507044011 | 21 | 295 | 0.0 | 0.0 | 0.00 | 0.00 | 0.00 | 30 | 1014.3 |
| 20260507043513 | 20 | 297 | 0.0 | 0.0 | 0.00 | 0.00 | 0.00 | 31 | 1014.3 |
| 20260507043024 | 21 | 297 | 0.0 | 0.0 | 0.00 | 0.00 | 0.00 | 33 | 1014.3 |
| 20260507042507 | 21 | 297 | 0.0 | 0.0 | 0.00 | 0.00 | 0.00 | 31 | 1014.2 |
| 20260507042014 | 21 | 297 | 0.0 | 0.0 | 0.00 | 0.00 | 0.00 | 28 | 1014.2 |
| 20260507041514 | 21 | 297 | 0.0 | 0.0 | 0.00 | 0.00 | 0.00 | 28 | 1014.2 |
| 20260507041007 | 21 | 297 | 0.0 | 0.0 | 0.00 | 0.00 | 0.00 | 28 | 1014.1 |
| 20260507040508 | 22 | 297 | 0.0 | 0.0 | 0.00 | 0.00 | 0.00 | 27 | 1014.0 |
| 20260507040021 | 22 | 297 | 0.0 | 0.0 | 0.00 | 0.00 | 0.00 | 27 | 1014.0 |
| 20260507035506 | 22 | 297 | 0.0 | 0.0 | 0.00 | 0.00 | 0.00 | 27 | 1013.9 |
| 20260507035008 | 22 | 297 | 0.0 | 0.0 | 0.00 | 0.00 | 0.00 | 25 | 1013.9 |
| 20260507034525 | 22 | 297 | 0.0 | 0.0 | 0.00 | 0.00 | 0.00 | 24 | 1013.8 |
| 20260507034009 | 23 | 297 | 0.0 | 0.0 | 0.00 | 0.00 | 0.00 | 24 | 1013.7 |
| 20260507033509 | 22 | 297 | 0.0 | 0.0 | 0.00 | 0.00 | 0.00 | 24 | 1013.7 |
| 20260507033028 | 22 | 297 | 0.0 | 0.0 | 0.00 | 0.00 | 0.00 | 25 | 1013.5 |
| 20260507032509 | 22 | 297 | 0.0 | 0.0 | 0.00 | 0.00 | 0.00 | 25 | 1013.5 |
| 20260507032018 | 23 | 297 | 0.0 | 0.0 | 0.00 | 0.00 | 0.00 | 25 | 1013.5 |
| 20260507031515 | 23 | 297 | 0.0 | 0.0 | 0.00 | 0.00 | 0.00 | 25 | 1013.4 |
| 20260507031008 | 24 | 297 | 0.0 | 0.0 | 0.00 | 0.00 | 0.00 | 23 | 1013.4 |
| 20260507030511 | 24 | 297 | 0.0 | 0.0 | 0.00 | 0.00 | 0.00 | 22 | 1013.3 |
| 20260507030023 | 24 | 297 | 0.0 | 0.0 | 0.00 | 0.00 | 0.00 | 22 | 1013.3 |
| 20260507025506 | 25 | 297 | 0.0 | 0.0 | 0.00 | 0.00 | 0.00 | 22 | 1013.1 |
| 20260507025011 | 25 | 297 | 0.0 | 1.6 | 0.00 | 0.00 | 0.00 | 21 | 1013.1 |
| 20260507024525 | 25 | 297 | 0.0 | 1.6 | 0.00 | 0.00 | 0.00 | 21 | 1013.1 |
| 20260507024007 | 25 | 297 | 0.0 | 0.0 | 0.00 | 0.00 | 0.00 | 21 | 1013.0 |
| 20260507023514 | 25 | 297 | 0.0 | 0.0 | 0.00 | 0.00 | 0.00 | 21 | 1013.0 |
| 20260507023029 | 25 | 297 | 0.0 | 0.0 | 0.00 | 0.00 | 0.00 | 20 | 1012.9 |
| 20260507022509 | 25 | 297 | 0.0 | 0.0 | 0.00 | 0.00 | 0.00 | 20 | 1012.9 |
| 20260507022014 | 26 | 297 | 0.0 | 0.0 | 0.00 | 0.00 | 0.00 | 20 | 1012.9 |
| 20260507021520 | 26 | 297 | 0.0 | 1.6 | 0.00 | 0.00 | 0.00 | 20 | 1012.8 |
| 20260507021009 | 26 | 297 | 0.0 | 1.6 | 0.00 | 0.00 | 0.00 | 19 | 1012.7 |
| 20260507020514 | 26 | 284 | 0.0 | 1.6 | 0.00 | 0.00 | 0.00 | 19 | 1012.7 |
| 20260507020005 | 26 | 295 | 0.0 | 3.2 | 0.00 | 0.00 | 0.00 | 19 | 1012.7 |
| 20260507015503 | 26 | 294 | 0.0 | 6.4 | 0.00 | 0.00 | 0.00 | 19 | 1012.7 |
| 20260507015003 | 27 | 276 | 1.6 | 6.4 | 0.00 | 0.00 | 0.00 | 18 | 1012.6 |
| 20260507014504 | 27 | 192 | 0.0 | 6.4 | 0.00 | 0.00 | 0.00 | 18 | 1012.6 |
| 20260507014004 | 27 | 276 | 1.6 | 4.8 | 0.00 | 0.00 | 0.00 | 18 | 1012.6 |
| 20260507013506 | 28 | 285 | 0.0 | 4.8 | 0.00 | 0.00 | 0.00 | 18 | 1012.6 |
| 20260507013005 | 28 | 282 | 0.0 | 8.0 | 0.00 | 0.00 | 0.00 | 18 | 1012.6 |
| 20260507012506 | 28 | 299 | 1.6 | 8.0 | 0.00 | 0.00 | 0.00 | 17 | 1012.6 |
| 20260507012008 | 28 | 305 | 0.0 | 4.8 | 0.00 | 0.00 | 0.00 | 17 | 1012.6 |
| 20260507011506 | 28 | 290 | 0.0 | 4.8 | 0.00 | 0.00 | 0.00 | 17 | 1012.6 |
| 20260507011011 | 28 | 290 | 0.0 | 4.8 | 0.00 | 0.00 | 0.00 | 18 | 1012.6 |
| 20260507010504 | 28 | 269 | 1.6 | 8.0 | 0.00 | 0.00 | 0.00 | 17 | 1012.6 |
| 20260507010006 | 28 | 311 | 3.2 | 8.0 | 0.00 | 0.00 | 0.00 | 17 | 1012.6 |
| 20260507005503 | 28 | 316 | 1.6 | 8.0 | 0.00 | 0.00 | 0.00 | 17 | 1012.6 |
| 20260507005006 | 28 | 293 | 0.0 | 9.7 | 0.00 | 0.00 | 0.00 | 17 | 1012.6 |
| 20260507004505 | 28 | 250 | 1.6 | 9.7 | 0.00 | 0.00 | 0.00 | 17 | 1012.5 |
| 20260507004013 | 28 | 271 | 0.0 | 4.8 | 0.00 | 0.00 | 0.00 | 16 | 1012.5 |
| 20260507003507 | 28 | 271 | 0.0 | 6.4 | 0.00 | 0.00 | 0.00 | 17 | 1012.5 |
| 20260507003003 | 28 | 299 | 0.0 | 8.0 | 0.00 | 0.00 | 0.00 | 17 | 1012.5 |
| 20260507002506 | 28 | 281 | 1.6 | 8.0 | 0.00 | 0.00 | 0.00 | 17 | 1012.5 |
| 20260507002007 | 28 | 307 | 0.0 | 8.0 | 0.00 | 0.00 | 0.00 | 17 | 1012.4 |
| 20260507001527 | 28 | 316 | 0.0 | 8.0 | 0.00 | 0.00 | 0.00 | 17 | 1012.4 |
| 20260507001012 | 28 | 318 | 0.0 | 14.5 | 0.00 | 0.00 | 0.00 | 18 | 1012.4 |
| 20260507000505 | 28 | 290 | 1.6 | 14.5 | 0.00 | 0.00 | 0.00 | 18 | 1012.5 |
| 20260507000006 | 28 | 310 | 0.0 | 6.4 | 0.00 | 0.00 | 0.00 | 18 | 1012.4 |
| 20260506235503 | 28 | 274 | 0.0 | 11.3 | 0.00 | 0.00 | 0.00 | 18 | 1012.4 |
| 20260506235004 | 28 | 283 | 0.0 | 19.3 | 0.00 | 0.00 | 0.00 | 17 | 1012.5 |
| 20260506234514 | 28 | 297 | 6.4 | 19.3 | 0.00 | 0.00 | 0.00 | 18 | 1012.5 |
| 20260506234007 | 28 | 280 | 0.0 | 8.0 | 0.00 | 0.00 | 0.00 | 18 | 1012.5 |
| 20260506233504 | 28 | 284 | 0.0 | 8.0 | 0.00 | 0.00 | 0.00 | 18 | 1012.6 |
| 20260506233020 | 28 | 175 | 0.0 | 9.7 | 0.00 | 0.00 | 0.00 | 18 | 1012.5 |
| 20260506232506 | 28 | 279 | 1.6 | 11.3 | 0.00 | 0.00 | 0.00 | 17 | 1012.6 |
| 20260506232006 | 28 | 307 | 3.2 | 11.3 | 0.00 | 0.00 | 0.00 | 18 | 1012.6 |
| 20260506231521 | 28 | 309 | 4.8 | 9.7 | 0.00 | 0.00 | 0.00 | 17 | 1012.6 |
| 20260506231008 | 28 | 280 | 0.0 | 11.3 | 0.00 | 0.00 | 0.00 | 18 | 1012.7 |
| 20260506230504 | 28 | 296 | 0.0 | 11.3 | 0.00 | 0.00 | 0.00 | 18 | 1012.7 |
| 20260506230006 | 28 | 200 | 3.2 | 9.7 | 0.00 | 0.00 | 0.00 | 18 | 1012.8 |
| 20260506225504 | 28 | 297 | 1.6 | 9.7 | 0.00 | 0.00 | 0.00 | 18 | 1012.8 |
| 20260506225006 | 28 | 308 | 1.6 | 8.0 | 0.00 | 0.00 | 0.00 | 17 | 1012.9 |
| 20260506224514 | 28 | 326 | 0.0 | 11.3 | 0.00 | 0.00 | 0.00 | 18 | 1012.9 |
| 20260506224006 | 28 | 318 | 1.6 | 11.3 | 0.00 | 0.00 | 0.00 | 18 | 1013.0 |
| 20260506223506 | 28 | 342 | 0.0 | 11.3 | 0.00 | 0.00 | 0.00 | 18 | 1013.0 |
| 20260506223020 | 28 | 319 | 1.6 | 12.9 | 0.00 | 0.00 | 0.00 | 18 | 1013.1 |
| 20260506222508 | 28 | 307 | 4.8 | 12.9 | 0.00 | 0.00 | 0.00 | 18 | 1013.1 |
| 20260506222007 | 28 | 322 | 3.2 | 9.7 | 0.00 | 0.00 | 0.00 | 18 | 1013.1 |
| 20260506221524 | 28 | 301 | 3.2 | 8.0 | 0.00 | 0.00 | 0.00 | 18 | 1013.2 |
| 20260506221012 | 28 | 309 | 1.6 | 6.4 | 0.00 | 0.00 | 0.00 | 18 | 1013.2 |
| 20260506220507 | 28 | 287 | 0.0 | 6.4 | 0.00 | 0.00 | 0.00 | 17 | 1013.3 |
| 20260506220026 | 28 | 350 | 0.0 | 11.3 | 0.00 | 0.00 | 0.00 | 18 | 1013.4 |
| 20260506215507 | 27 | 350 | 4.8 | 11.3 | 0.00 | 0.00 | 0.00 | 18 | 1013.5 |
| 20260506215004 | 27 | 284 | 0.0 | 8.0 | 0.00 | 0.00 | 0.00 | 18 | 1013.5 |
| 20260506214518 | 27 | 314 | 3.2 | 8.0 | 0.00 | 0.00 | 0.00 | 18 | 1013.7 |
| 20260506214007 | 27 | 285 | 0.0 | 11.3 | 0.00 | 0.00 | 0.00 | 18 | 1013.8 |
| 20260506213503 | 27 | 323 | 3.2 | 11.3 | 0.00 | 0.00 | 0.00 | 19 | 1013.9 |
| 20260506213024 | 27 | 304 | 1.6 | 9.7 | 0.00 | 0.00 | 0.00 | 19 | 1014.0 |
| 20260506212506 | 27 | 278 | 3.2 | 9.7 | 0.00 | 0.00 | 0.00 | 18 | 1014.1 |
| 20260506212007 | 27 | 313 | 1.6 | 9.7 | 0.00 | 0.00 | 0.00 | 18 | 1014.1 |
| 20260506211524 | 27 | 323 | 3.2 | 9.7 | 0.00 | 0.00 | 0.00 | 18 | 1014.2 |
| 20260506211007 | 28 | 345 | 1.6 | 8.0 | 0.00 | 0.00 | 0.00 | 18 | 1014.2 |
| 20260506210504 | 27 | 140 | 0.0 | 8.0 | 0.00 | 0.00 | 0.00 | 18 | 1014.3 |
| 20260506210028 | 27 | 107 | 0.0 | 11.3 | 0.00 | 0.00 | 0.00 | 18 | 1014.4 |
| 20260506205503 | 27 | 6 | 3.2 | 11.3 | 0.00 | 0.00 | 0.00 | 19 | 1014.5 |
| 20260506205006 | 27 | 188 | 0.0 | 12.9 | 0.00 | 0.00 | 0.00 | 19 | 1014.6 |
| 20260506204523 | 27 | 350 | 4.8 | 12.9 | 0.00 | 0.00 | 0.00 | 19 | 1014.7 |
| 20260506204006 | 27 | 284 | 1.6 | 4.8 | 0.00 | 0.00 | 0.00 | 20 | 1014.7 |
| 20260506203513 | 27 | 297 | 0.0 | 6.4 | 0.00 | 0.00 | 0.00 | 20 | 1014.7 |
| 20260506203022 | 26 | 290 | 1.6 | 9.7 | 0.00 | 0.00 | 0.00 | 21 | 1014.7 |
| 20260506202507 | 26 | 290 | 3.2 | 11.3 | 0.00 | 0.00 | 0.00 | 21 | 1014.8 |
| 20260506202012 | 26 | 316 | 6.4 | 9.7 | 0.00 | 0.00 | 0.00 | 21 | 1014.8 |
| 20260506201527 | 26 | 271 | 1.6 | 8.0 | 0.00 | 0.00 | 0.00 | 21 | 1014.9 |
| 20260506201006 | 26 | 349 | 0.0 | 8.0 | 0.00 | 0.00 | 0.00 | 22 | 1015.0 |
| 20260506200517 | 26 | 305 | 0.0 | 9.7 | 0.00 | 0.00 | 0.00 | 22 | 1015.0 |
| 20260506200027 | 26 | 323 | 3.2 | 9.7 | 0.00 | 0.00 | 0.00 | 21 | 1015.1 |
| 20260506195507 | 26 | 4 | 3.2 | 9.7 | 0.00 | 0.00 | 0.00 | 21 | 1015.2 |
| 20260506195007 | 26 | 345 | 3.2 | 8.0 | 0.00 | 0.00 | 0.00 | 22 | 1015.3 |
| 20260506194521 | 25 | 298 | 3.2 | 8.0 | 0.00 | 0.00 | 0.00 | 22 | 1015.3 |
| 20260506194009 | 25 | 179 | 4.8 | 9.7 | 0.00 | 0.00 | 0.00 | 22 | 1015.3 |
| 20260506193508 | 25 | 309 | 0.0 | 9.7 | 0.00 | 0.00 | 0.00 | 23 | 1015.4 |
| 20260506193025 | 25 | 294 | 0.0 | 12.9 | 0.00 | 0.00 | 0.00 | 23 | 1015.5 |
| 20260506192511 | 25 | 14 | 1.6 | 14.5 | 0.00 | 0.00 | 0.00 | 23 | 1015.6 |
| 20260506192012 | 25 | 310 | 6.4 | 14.5 | 0.00 | 0.00 | 0.00 | 22 | 1015.6 |
| 20260506191525 | 25 | 310 | 1.6 | 9.7 | 0.00 | 0.00 | 0.00 | 23 | 1015.6 |
| 20260506191008 | 26 | 351 | 4.8 | 11.3 | 0.00 | 0.00 | 0.00 | 22 | 1015.7 |
| 20260506190510 | 26 | 307 | 3.2 | 11.3 | 0.00 | 0.00 | 0.00 | 23 | 1015.7 |
| 20260506190028 | 26 | 357 | 0.0 | 3.2 | 0.00 | 0.00 | 0.00 | 22 | 1015.8 |
| 20260506185507 | 26 | 356 | 0.0 | 8.0 | 0.00 | 0.00 | 0.00 | 21 | 1015.8 |
| 20260506185008 | 25 | 349 | 0.0 | 9.7 | 0.00 | 0.00 | 0.00 | 24 | 1015.9 |
| 20260506184521 | 25 | 340 | 6.4 | 9.7 | 0.00 | 0.00 | 0.00 | 23 | 1015.9 |
| 20260506184006 | 24 | 307 | 3.2 | 11.3 | 0.00 | 0.00 | 0.00 | 25 | 1016.1 |
| 20260506183511 | 24 | 256 | 1.6 | 11.3 | 0.00 | 0.00 | 0.00 | 26 | 1016.1 |
| 20260506183026 | 24 | 87 | 1.6 | 8.0 | 0.00 | 0.00 | 0.00 | 24 | 1016.2 |
| 20260506182506 | 24 | 328 | 0.0 | 8.0 | 0.00 | 0.00 | 0.00 | 24 | 1016.3 |
| 20260506182014 | 24 | 289 | 1.6 | 8.0 | 0.00 | 0.00 | 0.00 | 25 | 1016.3 |
| 20260506181524 | 24 | 323 | 0.0 | 6.4 | 0.00 | 0.00 | 0.00 | 26 | 1016.4 |
| 20260506181012 | 24 | 312 | 1.6 | 12.9 | 0.00 | 0.00 | 0.00 | 26 | 1016.4 |
| 20260506180513 | 24 | 300 | 3.2 | 12.9 | 0.00 | 0.00 | 0.00 | 27 | 1016.4 |
| 20260506180027 | 23 | 307 | 0.0 | 9.7 | 0.00 | 0.00 | 0.00 | 27 | 1016.4 |
| 20260506175506 | 23 | 295 | 1.6 | 9.7 | 0.00 | 0.00 | 0.00 | 27 | 1016.4 |
| 20260506175009 | 23 | 307 | 3.2 | 9.7 | 0.00 | 0.00 | 0.00 | 26 | 1016.4 |
| 20260506174525 | 23 | 335 | 0.0 | 6.4 | 0.00 | 0.00 | 0.00 | 27 | 1016.5 |
| 20260506174006 | 23 | 30 | 0.0 | 6.4 | 0.00 | 0.00 | 0.00 | 27 | 1016.5 |
| 20260506173510 | 23 | 305 | 0.0 | 3.2 | 0.00 | 0.00 | 0.00 | 28 | 1016.4 |
| 20260506173026 | 23 | 307 | 0.0 | 9.7 | 0.00 | 0.00 | 0.00 | 28 | 1016.4 |
| 20260506172510 | 23 | 304 | 0.0 | 9.7 | 0.00 | 0.00 | 0.00 | 28 | 1016.4 |
| 20260506172012 | 23 | 282 | 0.0 | 3.2 | 0.00 | 0.00 | 0.00 | 29 | 1016.4 |
| 20260506171527 | 22 | 273 | 0.0 | 4.8 | 0.00 | 0.00 | 0.00 | 29 | 1016.4 |
| 20260506171007 | 22 | 307 | 0.0 | 4.8 | 0.00 | 0.00 | 0.00 | 29 | 1016.4 |
| 20260506170511 | 22 | 277 | 0.0 | 6.4 | 0.00 | 0.00 | 0.00 | 29 | 1016.4 |
| 20260506170003 | 22 | 287 | 0.0 | 6.4 | 0.00 | 0.00 | 0.00 | 30 | 1016.4 |
| 20260506165508 | 22 | 316 | 0.0 | 1.6 | 0.00 | 0.00 | 0.00 | 30 | 1016.4 |
| 20260506165006 | 22 | 336 | 0.0 | 1.6 | 0.00 | 0.00 | 0.00 | 30 | 1016.4 |
| 20260506164506 | 22 | 255 | 0.0 | 3.2 | 0.00 | 0.00 | 0.00 | 31 | 1016.4 |
| 20260506164008 | 21 | 167 | 0.0 | 3.2 | 0.00 | 0.00 | 0.00 | 31 | 1016.4 |
| 20260506163504 | 21 | 346 | 0.0 | 3.2 | 0.00 | 0.00 | 0.00 | 30 | 1016.4 |
| 20260506163009 | 22 | 300 | 0.0 | 3.2 | 0.00 | 0.00 | 0.00 | 31 | 1016.4 |
| 20260506162504 | 22 | 300 | 0.0 | 1.6 | 0.00 | 0.00 | 0.00 | 31 | 1016.3 |
| 20260506162004 | 21 | 300 | 0.0 | 0.0 | 0.00 | 0.00 | 0.00 | 31 | 1016.3 |